Weather History for London-Corbin, KY

Change the Weather History Date:

Tuesday, March 6, 2012

  Actual Average Record
Temperature  
Mean Temperature 45 °F 45 °F  
Max Temperature 65 °F 55 °F 79 °F (1956)
Min Temperature 25 °F 34 °F -8 °F (1960)
Degree Days  
Heating Degree Days 20 20  
Month to date heating degree days 124 127  
Since 1 July heating degree days 3159 3403  
Cooling Degree Days 0 0  
Month to date cooling degree days 0 0  
Year to date cooling degree days 0 0  
Moisture  
Dew Point 20 °F    
Average Humidity 49    
Maximum Humidity 81    
Minimum Humidity 16    
Precipitation  
Precipitation 0.00 in 0.13 in 3.00 in (1967)
Month to date precipitation 0.28 0.80  
Year to date precipitation 6.89 8.05  
Sea Level Pressure  
Sea Level Pressure 30.42 in    
Wind  
Wind Speed 5 mph (South)    
Max Wind Speed 14 mph    
Max Gust Speed 17 mph    
Visibility 10 miles    
Events      
T = Trace of Precipitation, MM = Missing Value Source: NWS Daily Summary

Daily Weather History Graph

Daily Weather History Graph

Search for Another Location

Airport:

Trip Planner

Search our weather history database for the weather conditions in past years. The results will help you decide how hot, cold, wet, or windy it might be!

Date:

Astronomy

Mar. 06, 2012 Rise Set
Actual Time 6:59 AM EST 6:35 PM EST
Civil Twilight 6:33 AM EST 7:01 PM EST
Nautical Twilight 6:03 AM EST 7:31 PM EST
Astronomical Twilight 5:33 AM EST 8:02 PM EST
Moon 5:02 PM EST (3/6) 5:32 AM EST (3/6)
Length of Visible Light 12h 28m
Length of Day
11h 36m
Waxing Gibbous, 96% of the Moon is Illuminated
Mar 6
Waxing Gibbous
Mar 8
Full
Mar 14
Last Quarter
Mar 22
New
Mar 30
First Quarter

Hourly Weather History & Observations

Time (EST) Temp. Windchill Dew Point Humidity Pressure Visibility Wind Dir Wind Speed Gust Speed Precip Events Conditions
12:53 AM 28.0 °F - 21.0 °F 75% 30.47 in 10.0 mi Calm Calm - N/A   Clear
1:53 AM 27.0 °F - 21.0 °F 78% 30.49 in 10.0 mi Calm Calm - N/A   Clear
2:53 AM 26.1 °F - 21.9 °F 84% 30.48 in 10.0 mi Calm Calm - N/A   Clear
3:53 AM 26.1 °F - 19.9 °F 78% 30.46 in 10.0 mi Calm Calm - N/A   Clear
5:53 AM 25.0 °F - 19.9 °F 81% 30.48 in 10.0 mi Calm Calm - N/A   Clear
6:53 AM 26.1 °F 21.9 °F 19.9 °F 78% 30.48 in 10.0 mi SE 3.5 mph - N/A   Clear
7:53 AM 28.9 °F 23.9 °F 21.0 °F 72% 30.48 in 10.0 mi SSE 4.6 mph - N/A   Clear
8:53 AM 36.0 °F 32.1 °F 21.9 °F 57% 30.49 in 10.0 mi SE 4.6 mph - N/A   Clear
9:53 AM 43.0 °F 40.3 °F 19.9 °F 40% 30.49 in 10.0 mi Variable 4.6 mph - N/A   Clear
10:53 AM 48.2 °F - 19.4 °F 32% 30.45 in 10.0 mi South 9.2 mph - N/A   Clear
11:53 AM 53.1 °F - 19.9 °F 27% 30.45 in 10.0 mi South 6.9 mph - N/A   Clear
12:53 PM 57.9 °F - 19.9 °F 23% 30.43 in 10.0 mi South 8.1 mph - N/A   Clear
1:53 PM 62.1 °F - 19.9 °F 20% 30.39 in 10.0 mi SSE 8.1 mph 17.3 mph N/A   Clear
2:53 PM 63.0 °F - 19.0 °F 18% 30.36 in 10.0 mi SSW 6.9 mph 17.3 mph N/A   Clear
3:53 PM 64.9 °F - 19.0 °F 17% 30.35 in 10.0 mi SSE 9.2 mph - N/A   Clear
4:53 PM 64.9 °F - 19.0 °F 17% 30.34 in 10.0 mi South 8.1 mph - N/A   Clear
5:53 PM 62.6 °F - 15.8 °F 16% 30.33 in 10.0 mi South 9.2 mph - N/A   Clear
6:53 PM 59.0 °F - 16.0 °F 19% 30.35 in 10.0 mi South 4.6 mph - N/A   Clear
7:53 PM 55.9 °F - 17.1 °F 22% 30.35 in 10.0 mi South 4.6 mph - N/A   Clear
8:53 PM 53.6 °F - 19.4 °F 26% 30.36 in 10.0 mi Variable 3.5 mph - N/A   Clear
9:53 PM 53.1 °F - 21.0 °F 29% 30.39 in 10.0 mi South 4.6 mph - N/A   Clear
10:53 PM 50.0 °F - 23.0 °F 35% 30.39 in 10.0 mi South 4.6 mph - N/A   Clear
11:53 PM 52.0 °F - 19.9 °F 28% 30.38 in 10.0 mi South 6.9 mph - N/A   Clear